Total_Precipitation_Accumulation
2.71 2.75 2.64 2.60 2.51 2.44 2.29 2.05 2.01 2.00 1.89 1.79 1.71 1.66 1.62 1.64 1.65 1.69 1.63 1.58 1.57 1.56 1.47 1.45 1.49 1.59 1.75 1.74 1.75 1.89 2.10 2.34 2.45 2.02 1.81 1.89 2.04 1.98 2.00 1.90 1.73 1.70 1.67
2.37 2.48 2.51 2.42 2.20 2.10 2.01 1.90 1.79 1.72 1.68 1.66 1.55 1.49 1.45 1.40 1.37 1.33 1.33 1.35 1.36 1.35 1.35 1.41 1.41 1.49 1.64 1.68 1.73 1.78 1.94 2.21 2.38 2.32 2.08 2.06 2.07 2.03 2.11 2.07 1.82 1.67 1.69
2.15 2.19 2.15 2.09 1.96 1.85 1.84 1.84 1.71 1.61 1.53 1.49 1.46 1.42 1.36 1.38 1.29 1.18 1.17 1.24 1.22 1.20 1.27 1.34 1.42 1.67 1.70 1.69 1.75 1.79 1.86 1.96 2.30 2.36 2.15 2.16 2.15 2.15 2.34 2.18 1.99 1.97 1.64
1.79 1.91 1.91 1.89 1.85 1.76 1.66 1.64 1.61 1.56 1.49 1.44 1.45 1.37 1.32 1.30 1.28 1.22 1.18 1.22 1.23 1.20 1.24 1.32 1.42 1.62 1.73 1.82 1.77 1.87 1.92 2.06 2.23 2.36 2.30 2.27 2.31 2.33 2.38 2.33 2.18 2.03 1.81
1.65 1.62 1.70 1.82 1.83 1.77 1.70 1.66 1.61 1.53 1.41 1.41 1.41 1.32 1.31 1.28 1.21 1.21 1.20 1.22 1.30 1.31 1.25 1.24 1.28 1.40 1.54 1.54 1.42 1.57 1.78 2.05 2.12 2.30 2.35 2.37 2.31 2.40 2.27 2.06 2.01 1.98 1.82
1.62 1.59 1.63 1.70 1.70 1.65 1.62 1.58 1.53 1.48 1.48 1.46 1.44 1.38 1.31 1.06 1.14 1.16 1.15 1.22 1.30 1.31 1.28 1.26 1.19 1.15 1.11 1.10 1.14 1.22 1.43 1.75 2.12 2.37 2.31 2.30 2.19 2.11 2.13 2.08 2.10 2.12 2.05
1.76 1.64 1.62 1.59 1.55 1.52 1.41 1.39 1.46 1.48 1.47 1.41 1.38 1.39 1.32 1.18 1.16 1.08 1.09 1.21 1.33 1.41 1.45 1.41 1.10 0.93 1.04 1.05 1.10 1.16 1.28 1.46 1.79 2.21 2.32 2.12 2.10 2.06 2.16 2.16 2.23 2.24 2.10
1.78 1.64 1.53 1.53 1.49 1.50 1.47 1.45 1.49 1.51 1.44 1.44 1.40 1.37 1.35 1.23 1.16 1.07 1.10 1.16 1.31 1.34 1.34 1.36 1.34 1.20 1.10 1.19 1.26 1.32 1.42 1.52 1.63 1.73 2.08 1.95 1.78 1.87 2.01 2.06 2.22 2.25 2.12
1.80 1.57 1.44 1.45 1.43 1.42 1.44 1.44 1.48 1.50 1.42 1.37 1.36 1.40 1.45 1.38 1.21 1.09 1.02 1.03 1.17 1.22 1.18 1.16 1.14 1.17 1.24 1.41 1.53 1.72 1.80 1.88 1.73 1.87 2.03 1.97 1.85 1.84 1.79 1.95 2.29 2.36 2.21
1.58 1.43 1.37 1.39 1.33 1.30 1.36 1.41 1.44 1.47 1.43 1.38 1.35 1.39 1.39 1.29 1.12 0.94 0.91 0.91 1.06 1.13 1.21 1.18 1.05 0.99 1.14 1.32 1.55 1.88 2.00 2.06 1.92 2.01 2.25 2.24 2.04 2.07 2.09 2.05 2.32 2.46 2.37
1.32 1.27 1.31 1.31 1.26 1.21 1.25 1.31 1.38 1.36 1.39 1.41 1.33 1.31 1.22 1.08 1.00 0.87 0.84 0.83 0.96 1.09 1.13 1.16 1.11 1.02 1.07 1.31 1.55 1.78 1.92 1.99 2.06 2.16 2.17 2.16 2.22 2.23 2.22 2.19 2.26 2.33 2.33
1.26 1.21 1.28 1.35 1.18 1.09 1.18 1.17 1.21 1.37 1.34 1.31 1.33 1.23 1.08 1.00 0.86 0.79 0.78 0.75 0.81 1.02 1.20 1.19 1.21 1.18 1.19 1.37 1.51 1.76 1.98 2.08 2.08 2.17 2.05 1.93 1.91 1.93 2.00 2.02 2.05 2.04 2.02
1.30 1.35 1.34 1.31 1.24 1.23 1.25 1.20 1.22 1.31 1.32 1.24 1.22 1.13 0.99 0.95 0.87 0.80 0.80 0.82 0.85 0.96 1.14 1.22 1.23 1.22 1.30 1.55 1.72 1.91 2.09 2.18 2.24 2.15 1.94 1.82 1.72 1.72 1.75 1.87 1.97 1.99 1.86
1.32 1.41 1.49 1.36 1.22 1.23 1.29 1.18 1.18 1.18 1.19 1.17 1.14 1.12 1.05 1.00 0.89 0.82 0.85 0.90 0.94 0.96 1.05 1.22 1.32 1.36 1.47 1.75 1.96 2.14 2.22 2.15 2.03 1.99 1.91 1.83 1.73 1.71 1.77 1.73 1.80 1.88 1.90
1.35 1.32 1.37 1.31 1.25 1.25 1.24 1.11 1.05 1.01 1.05 1.12 1.11 1.12 1.10 1.01 0.94 0.96 0.90 0.86 0.89 0.91 1.00 1.17 1.34 1.47 1.62 1.82 2.00 2.08 2.07 1.99 1.91 1.75 1.71 1.80 1.80 1.73 1.76 1.73 1.74 1.77 1.83
1.31 1.27 1.20 1.17 1.19 1.15 1.19 1.17 1.11 1.04 1.00 0.94 0.96 0.92 0.89 0.93 0.93 0.89 0.84 0.84 0.86 0.91 0.98 1.21 1.37 1.46 1.61 1.79 1.94 1.95 1.89 1.80 1.71 1.61 1.55 1.52 1.53 1.51 1.56 1.60 1.57 1.60 1.64
1.16 1.14 1.12 1.10 1.11 1.08 1.09 1.16 1.16 0.99 0.89 0.85 0.86 0.82 0.80 0.81 0.75 0.73 0.74 0.79 0.82 0.87 0.92 1.17 1.33 1.45 1.65 1.76 1.76 1.74 1.74 1.67 1.59 1.53 1.48 1.39 1.32 1.29 1.29 1.29 1.31 1.36 1.35
0.97 0.93 0.91 0.95 0.96 0.97 0.98 0.97 0.97 0.95 0.92 0.83 0.78 0.79 0.75 0.71 0.66 0.64 0.70 0.72 0.74 0.77 0.88 1.12 1.28 1.39 1.51 1.61 1.65 1.65 1.62 1.55 1.47 1.43 1.49 1.46 1.36 1.29 1.21 1.19 1.21 1.19 1.19
0.84 0.85 0.79 0.79 0.86 0.88 0.89 0.89 0.86 0.86 0.86 0.83 0.76 0.73 0.74 0.70 0.67 0.67 0.68 0.66 0.73 0.81 0.90 1.06 1.18 1.30 1.33 1.34 1.39 1.44 1.48 1.47 1.41 1.37 1.35 1.36 1.30 1.24 1.14 1.06 1.04 0.96 1.00
0.75 0.78 0.73 0.67 0.69 0.76 0.78 0.79 0.77 0.78 0.78 0.77 0.73 0.68 0.71 0.77 0.71 0.70 0.66 0.64 0.72 0.81 0.90 1.00 1.09 1.14 1.14 1.13 1.14 1.17 1.23 1.27 1.26 1.21 1.18 1.21 1.20 1.15 1.09 1.04 1.02 1.00 0.99
0.66 0.69 0.72 0.67 0.62 0.63 0.63 0.64 0.63 0.66 0.72 0.75 0.70 0.68 0.80 0.83 0.84 0.81 0.78 0.76 0.78 0.82 0.87 0.88 0.92 0.97 0.97 0.98 1.02 1.05 1.09 1.12 1.14 1.13 1.08 1.07 1.06 1.08 1.03 1.03 1.03 1.01 0.98
0.60 0.64 0.65 0.64 0.63 0.61 0.58 0.59 0.61 0.62 0.61 0.67 0.68 0.74 0.87 0.83 0.86 0.88 0.86 0.84 0.82 0.81 0.79 0.80 0.81 0.82 0.84 0.88 0.90 0.92 0.93 0.95 1.00 1.05 1.06 1.01 0.93 0.91 0.90 0.90 0.97 1.02 1.02
0.70 0.69 0.67 0.68 0.67 0.64 0.61 0.63 0.68 0.67 0.64 0.63 0.64 0.69 0.79 0.87 0.97 1.03 1.00 0.93 0.88 0.84 0.80 0.80 0.81 0.81 0.82 0.82 0.81 0.86 0.90 0.90 0.95 1.02 1.07 1.00 0.90 0.85 0.81 0.81 0.85 0.91 0.91
0.75 0.73 0.69 0.72 0.77 0.74 0.70 0.70 0.68 0.69 0.70 0.71 0.71 0.75 0.83 0.93 0.95 1.03 1.10 1.06 0.97 0.92 0.85 0.81 0.80 0.79 0.77 0.76 0.71 0.68 0.70 0.77 0.85 0.92 0.97 0.96 0.85 0.76 0.73 0.72 0.74 0.76 0.82
0.75 0.75 0.74 0.72 0.74 0.77 0.73 0.76 0.76 0.74 0.74 0.75 0.78 0.79 0.83 0.85 0.84 0.93 1.03 1.06 1.05 1.02 0.94 0.88 0.87 0.84 0.75 0.69 0.64 0.60 0.69 0.78 0.84 0.86 0.90 0.89 0.80 0.76 0.76 0.78 0.75 0.73 0.76
0.70 0.72 0.74 0.71 0.69 0.73 0.75 0.78 0.78 0.77 0.80 0.80 0.80 0.80 0.80 0.80 0.81 0.84 0.91 0.98 1.03 1.07 1.10 1.11 1.06 0.92 0.80 0.69 0.69 0.74 0.74 0.69 0.72 0.77 0.79 0.80 0.76 0.75 0.77 0.79 0.73 0.74 0.76